Location: Peebles
(55.6412°N, 3.1714°W)
Time: 21:02:14
(UTC+01:00)

Transit 2A Rocket - Visible Passes

Search period start: 02 October 2022 00:00
Search period end: 12 October 2022 00:00
Orbit: 593 x 908 km, 66.7° (Epoch: 02 October)

Date Brightness Start Highest point End Pass type
(mag) Time Alt. Az. Time Alt. Az. Time Alt. Az.
03 Oct 7.1 06:30:11 10° SSE 06:33:34 23° ESE 06:37:01 10° ENE visible
04 Oct 7.4 05:48:41 10° SE 05:51:00 14° ESE 05:53:21 10° ENE visible
05 Oct 5.6 06:45:47 10° SSW 06:49:55 49° SE 06:54:11 10° NE visible
06 Oct 6.4 06:03:26 10° S 06:07:12 30° ESE 06:11:04 10° ENE visible
07 Oct 7.0 05:21:30 10° SSE 05:24:34 19° ESE 05:27:41 10° ENE visible
08 Oct 7.4 04:40:30 10° SE 04:42:02 12° ESE 04:43:34 10° E visible
08 Oct 4.9 06:19:23 10° SSW 06:23:38 65° SE 06:28:02 10° NE visible
09 Oct 5.7 05:36:50 10° SSW 05:40:51 40° ESE 05:45:00 10° NE visible
10 Oct 6.4 04:55:26 14° SSE 04:58:10 26° ESE 05:01:47 10° ENE visible
10 Oct 4.6 06:36:01 10° SW 06:40:19 65° NW 06:44:48 10° NE visible
11 Oct 6.9 04:14:13 14° SE 04:15:34 16° ESE 04:18:14 10° ENE visible
11 Oct 4.5 05:54:09 18° SW 05:57:22 85° SE 06:01:52 10° NE visible
